YAOGAN-32 B (43643 NORAD) Tracking and Keplerian Element Data

This shows tracking and keplerian element data for the satellite.

Feedback or suggestion? Click here.




ElementValue
Catalog43643
NameYAOGAN-32 B
Epoch Orbit38367
Epoch Day354.28251383
Epoch Year2025
RAAN20.7826
Inclination97.9228
Eccentricity0.0001345
Argument of Perigee80.465
Mean Anonmoly279.6705
Mean Motion14.62961314
Decay Rate6.93E-06
L11 43643U 18077B 25354.28251383 .00000693 00000+0 14412-3 0 9996
L22 43643 97.9228 20.7826 0001345 80.4650 279.6705 14.62961314383670



Live tracking and technical data element details for YAOGAN-32 B (NORAD 43643). YAOGAN-32 B can be tracked NOW for your location showing map with azimuth and elevation plus other details from your city location.







IsCatalogInMostPopularTable: catalog: 43643, numindb: 340
Update: records affected: 1



GetName: 43643 YAOGAN-32 B

Hit Count: updated at: Sat, 07 Mar 2026 06:29:40 GMT